Temp
20 20 20 19 19 19 20 20 20 20 20 20 20 20 20 20 20 21 22 23 24 23 24 25 24 24 25 24 24 23 22 21 20 19 19 18 17 18 18 19 18 17 17 16 16 16 16 15 15 15 16 16 16 16 16 16 17 16 16 16 16 16 16 16 16 16 16 16 16 16 16 16 16 16 17 17 17 17 17 17 17 17 17 17 16 16
20 20 19 19 19 20 21 20 20 20 20 20 20 20 20 19 20 21 21 22 23 22 23 24 23 24 24 23 23 22 21 21 20 19 18 18 17 18 18 18 18 17 17 16 16 16 15 15 15 16 16 16 16 16 16 16 16 16 16 16 16 16 16 16 16 17 17 17 17 17 16 17 17 17 17 17 17 17 17 17 17 17 17 16 16 16
19 19 19 19 20 20 20 19 18 19 19 19 19 19 19 19 20 21 22 23 23 23 23 24 23 23 23 22 22 22 21 21 20 19 18 18 18 18 18 18 17 17 17 16 16 15 15 15 16 16 16 16 16 16 16 16 16 16 16 16 16 16 16 16 17 17 17 17 17 17 17 17 17 17 17 17 17 17 17 17 16 16 16 16 16 16
19 19 20 20 19 19 19 19 18 19 19 19 19 19 19 20 20 21 22 23 23 23 23 23 22 22 22 21 21 20 21 21 20 19 18 18 18 18 18 18 17 16 16 16 16 15 15 15 16 16 16 16 16 16 16 16 16 16 16 16 16 16 16 16 17 17 17 17 17 17 17 17 17 17 17 17 17 16 16 16 16 16 16 16 16 16
19 20 21 20 19 19 19 19 18 18 19 18 19 19 19 20 20 20 21 22 22 22 22 22 22 21 20 21 20 18 19 20 19 18 17 17 18 18 18 17 16 16 16 16 16 15 15 15 16 16 16 16 16 16 16 16 16 16 16 16 16 16 16 17 17 17 17 17 17 17 17 17 17 17 16 16 16 16 16 16 16 16 16 17 17 17
19 20 21 20 19 19 19 19 19 19 19 19 19 19 20 21 21 20 21 21 21 22 22 21 21 21 20 19 18 17 18 19 18 18 17 17 18 18 17 17 16 16 16 16 15 15 15 15 16 16 16 16 16 16 16 16 16 16 16 16 17 16 16 16 17 17 17 17 17 17 17 17 16 16 16 16 16 16 16 16 16 17 17 17 17 17
20 20 21 21 20 19 19 19 19 19 19 19 20 21 21 21 20 20 21 21 21 21 21 21 21 21 20 19 17 16 17 17 17 18 18 17 17 17 17 17 17 16 16 15 15 15 15 16 15 16 16 16 16 16 16 16 16 16 16 16 17 17 17 17 17 17 17 17 17 17 17 17 17 16 16 17 17 17 17 17 17 17 17 17 17 17
21 21 21 21 20 20 19 19 19 19 19 19 21 22 21 21 20 21 21 21 21 21 21 21 21 21 21 19 17 17 17 17 17 18 17 17 17 17 17 17 17 16 16 15 15 15 16 16 15 16 16 16 16 16 16 16 16 16 16 16 17 17 17 17 17 17 17 17 17 17 17 17 17 17 17 17 17 17 17 17 17 17 17 17 17 17
21 21 21 21 20 19 20 20 20 19 20 21 22 22 22 21 21 21 21 21 21 21 21 21 21 21 21 19 17 17 17 17 18 17 17 17 17 17 17 17 17 16 16 15 15 15 16 16 16 15 16 16 16 16 16 16 16 16 16 16 17 17 17 17 17 17 17 17 17 17 18 18 17 17 17 17 17 17 17 17 17 17 17 17 17 17
21 22 22 21 20 20 21 21 20 20 21 22 22 22 22 21 21 21 21 21 21 20 20 21 21 21 21 19 17 17 17 18 17 17 17 17 17 17 17 17 17 16 16 15 15 15 16 16 16 16 16 16 16 16 16 16 16 16 16 16 17 17 17 17 17 17 17 17 17 18 18 18 17 17 17 17 17 17 17 17 17 17 17 17 17 17
21 21 22 21 21 22 22 22 21 21 22 22 22 21 21 21 21 21 21 21 21 20 21 21 21 21 21 20 18 17 18 18 17 17 17 17 17 17 17 16 16 16 16 16 15 16 16 16 15 15 16 16 16 16 16 16 16 16 16 16 16 17 17 17 17 17 17 17 18 18 18 18 17 17 17 17 17 17 17 17 17 17 17 17 17 17
20 21 22 22 23 23 22 22 21 21 21 22 22 22 21 21 21 21 20 20 20 20 21 21 21 21 21 20 19 19 18 18 18 18 17 17 18 17 17 16 16 16 16 16 15 15 16 16 15 15 15 15 16 16 16 16 16 16 16 16 16 16 17 17 17 17 17 18 18 18 18 18 18 18 17 17 17 17 17 17 17 17 17 17 17 17
21 21 22 23 23 23 22 22 21 21 21 21 22 21 21 20 20 20 20 20 20 20 20 20 20 21 20 20 19 18 18 18 18 18 18 18 18 17 16 16 16 16 16 16 16 15 16 16 15 15 15 15 16 16 16 16 16 16 16 15 15 16 17 17 17 17 18 18 18 18 18 18 18 18 18 18 18 17 17 17 17 17 17 17 17 17
20 21 21 22 23 23 23 22 21 21 21 21 22 21 21 20 19 20 19 19 20 21 20 19 21 21 20 19 18 17 17 18 18 19 19 18 18 17 17 16 16 16 16 16 16 15 15 15 15 15 15 15 15 16 15 15 15 15 15 15 15 16 16 17 17 17 18 18 18 18 18 19 18 18 18 18 18 17 18 17 17 17 17 17 17 17
20 20 21 23 23 23 23 23 23 23 22 21 22 22 21 20 20 20 20 20 20 21 20 20 20 20 20 19 17 17 17 18 19 19 19 18 18 17 17 16 16 16 16 16 16 15 15 15 15 15 15 15 15 15 15 15 15 15 15 15 15 16 16 17 17 17 18 18 18 18 19 19 19 18 18 18 18 18 18 18 17 17 17 17 17 17
19 20 22 23 22 23 24 24 24 24 22 21 21 21 21 21 21 20 19 19 20 20 20 19 19 18 18 19 17 17 17 17 18 18 18 18 17 17 16 16 16 16 16 16 16 15 15 15 15 15 15 15 15 15 15 15 15 15 15 15 15 16 16 17 17 18 18 18 18 18 19 19 18 18 18 18 18 18 18 18 18 17 17 17 17 17
20 20 22 22 22 23 24 24 24 24 23 20 20 21 21 21 22 20 19 18 19 21 19 17 18 18 18 19 18 18 17 17 17 17 17 17 17 16 16 16 16 16 16 16 16 16 15 15 15 15 15 15 15 15 15 15 15 15 15 15 15 16 16 17 17 17 18 18 18 18 18 18 18 18 18 18 18 18 18 18 18 17 17 17 17 17
19 20 21 22 22 23 23 23 24 23 23 22 21 21 20 20 21 21 20 19 19 20 19 17 18 18 18 19 18 18 17 16 15 16 16 16 16 16 16 15 15 15 15 16 16 16 15 15 15 15 15 15 15 15 15 15 15 15 15 15 15 16 16 16 17 17 18 18 18 18 18 18 18 18 18 18 18 18 17 17 17 17 17 17 17 17
19 20 21 21 22 23 23 22 23 22 22 23 22 22 21 20 21 20 20 20 19 20 18 17 17 17 17 17 16 16 15 15 15 15 15 16 16 15 15 15 15 14 15 15 15 15 15 15 15 15 15 15 15 15 15 15 15 15 15 15 15 16 16 16 17 17 18 18 18 18 18 18 18 18 18 18 18 17 17 17 17 17 17 17 17 17
19 19 21 21 21 21 22 22 22 22 22 22 22 21 21 21 21 20 20 20 20 19 18 17 17 17 16 15 15 15 14 15 15 15 15 15 15 15 14 14 14 14 14 14 14 14 14 14 14 14 14 15 15 15 15 15 15 15 15 15 15 15 16 17 17 17 18 18 18 18 18 18 18 18 18 18 18 17 17 17 17 17 17 17 17 17
19 19 19 21 21 21 21 21 20 21 22 22 22 21 21 20 20 20 19 19 20 20 19 18 18 17 16 15 15 15 14 15 15 15 15 15 14 14 14 14 14 14 14 14 14 14 13 13 13 13 14 14 14 14 15 15 15 15 15 14 14 15 16 16 17 17 17 18 18 18 18 17 17 18 18 18 18 18 18 17 17 17 17 17 17 16
19 19 19 20 21 20 20 20 19 20 20 21 21 20 20 20 20 20 20 18 19 19 19 19 18 16 15 15 15 14 14 14 14 14 14 14 14 14 14 14 14 14 14 13 14 14 13 13 14 14 14 14 14 14 14 14 15 14 14 13 14 15 16 16 16 17 17 18 18 18 18 17 17 17 18 18 18 18 18 18 17 17 17 17 17 16
18 18 18 19 19 19 19 19 19 19 19 20 20 18 18 19 20 21 21 19 19 18 17 18 18 16 15 14 14 14 14 14 14 14 14 13 13 13 13 14 14 13 13 13 13 13 13 13 13 13 14 14 14 14 14 14 14 13 14 14 14 15 15 15 16 17 17 17 18 18 18 17 17 17 18 18 18 18 17 18 17 17 17 17 17 16
18 18 18 19 19 19 19 20 20 19 19 20 19 17 17 19 19 20 20 19 19 18 18 19 18 16 15 14 14 14 13 13 13 13 14 13 13 13 12 13 13 13 13 13 13 13 13 13 13 13 13 13 13 13 13 13 13 14 15 15 15 15 15 15 16 17 17 17 17 17 17 17 17 17 18 18 18 18 17 17 17 17 17 17 17 17
18 17 18 18 18 18 19 19 20 20 19 19 18 17 17 18 18 18 18 19 19 18 18 20 18 15 15 14 14 14 13 13 13 13 13 13 13 12 12 13 13 13 13 13 13 13 13 13 13 13 13 13 13 13 13 13 13 14 15 14 14 15 15 16 16 16 16 16 16 16 17 17 17 17 17 18 18 18 17 17 17 17 17 17 17 17
18 16 17 18 17 17 17 18 18 18 17 17 17 17 18 18 19 19 19 20 20 17 17 19 17 14 14 14 14 13 13 13 13 13 13 13 12 12 12 12 12 12 12 12 12 12 12 12 12 13 13 13 13 13 13 13 13 14 14 13 13 13 14 15 15 15 15 15 16 16 16 16 16 16 16 17 17 17 16 17 17 17 17 17 17 17
17 14 14 16 16 16 16 15 15 16 17 17 17 17 17 17 18 19 19 20 19 16 16 16 15 14 15 14 14 14 13 13 13 13 12 12 11 11 11 11 10 10 11 11 11 11 11 11 11 11 11 12 13 13 13 13 13 13 13 13 13 13 14 15 13 13 15 16 15 15 15 15 15 15 15 15 16 16 16 17 17 17 17 17 17 17
16 15 13 13 14 14 13 14 14 15 16 16 15 16 16 16 18 20 19 17 16 17 17 14 14 15 15 14 14 13 12 12 11 11 11 10 10 10 10 10 10 10 10 10 9 10 10 10 10 11 11 12 12 13 13 13 13 13 13 13 13 13 13 13 12 13 15 15 15 15 15 15 15 15 15 15 16 16 17 17 17 17 17 17 17 17
16 14 13 13 12 12 12 14 14 14 14 13 12 14 14 14 17 19 17 14 15 18 17 14 14 14 13 12 11 11 11 10 9 9 9 9 9 9 9 9 9 9 9 9 9 9 9 10 10 10 11 11 11 12 12 12 13 13 13 13 13 13 13 12 13 13 13 13 13 14 14 15 15 15 16 16 16 16 17 17 17 17 17 17 17 17
15 14 13 13 13 12 12 13 14 13 13 13 12 12 12 13 14 15 13 13 14 16 15 13 13 12 10 10 9 9 9 9 9 9 8 8 9 9 8 8 8 8 8 8 8 9 9 9 10 10 10 10 10 11 12 12 12 12 12 12 12 13 13 12 13 14 13 13 13 13 14 14 14 15 15 16 16 16 17 17 17 17 16 16 17 17
15 14 12 13 13 12 12 13 13 13 13 13 12 11 12 12 12 12 12 12 13 14 13 12 12 10 10 9 9 9 9 9 8 8 8 8 8 8 8 8 7 8 8 8 8 8 8 8 9 9 9 9 9 10 11 11 12 12 12 12 12 12 12 12 12 13 14 13 13 13 14 13 14 14 15 15 16 16 16 16 17 17 16 16 16 16
16 13 12 13 13 12 11 12 12 13 13 14 13 11 10 11 12 12 12 12 13 13 12 12 12 10 9 9 9 9 9 8 8 7 8 8 8 8 7 7 7 7 7 7 8 8 8 8 8 9 9 9 9 9 10 10 11 11 11 11 12 12 12 12 12 12 13 13 13 14 14 13 13 14 14 15 15 15 16 16 16 16 16 16 16 16
15 14 13 14 13 11 11 11 11 13 14 14 12 9 9 11 12 12 11 11 12 12 13 13 12 10 9 8 8 8 8 7 7 7 7 7 7 7 7 7 7 7 7 7 7 7 7 8 8 8 8 8 8 9 9 10 10 10 10 11 11 11 12 12 12 12 12 12 12 13 13 13 13 14 14 14 15 15 15 16 16 16 16 16 16 16
13 14 14 14 13 12 11 11 12 13 13 12 11 9 9 10 11 11 10 10 10 11 11 11 10 9 9 8 7 7 7 7 6 6 6 6 6 6 7 7 7 7 7 7 7 7 7 7 7 8 8 8 8 8 9 9 9 10 10 10 11 11 11 11 11 11 11 12 12 12 12 12 13 13 13 13 13 13 14 14 15 15 15 16 16 16
13 14 14 13 13 12 11 12 13 13 12 11 11 10 10 10 10 10 9 9 9 9 9 9 8 8 8 7 7 7 6 6 6 6 6 6 6 6 6 6 6 6 6 6 6 6 6 6 7 7 7 8 8 8 8 9 9 9 10 10 10 10 10 10 10 10 10 11 11 11 11 12 12 12 12 12 12 13 13 12 13 14 15 15 15 15
14 14 14 13 12 12 11 12 13 12 11 10 11 11 10 10 11 10 10 10 9 9 9 8 8 7 7 7 7 6 6 6 6 6 6 6 6 6 6 6 6 6 6 6 6 6 6 6 6 6 7 8 8 8 8 8 9 9 8 9 9 9 9 10 10 10 10 10 10 10 11 11 11 11 11 12 12 12 12 12 13 14 14 14 14 14
14 15 14 13 12 12 11 11 11 11 11 11 11 10 10 10 10 10 10 10 9 9 9 8 8 7 7 7 7 6 7 7 7 6 6 6 6 6 6 6 6 6 6 6 6 6 6 6 6 6 7 7 7 7 7 9 9 9 8 8 8 8 8 9 9 9 10 10 10 10 10 11 11 11 11 11 11 11 12 12 12 13 13 14 13 13
14 15 15 14 12 11 11 11 11 11 11 11 10 10 10 10 9 9 10 10 9 9 9 9 8 7 7 7 7 7 8 8 7 6 6 7 6 6 6 6 6 6 6 6 6 5 5 5 6 6 6 7 7 7 7 8 9 9 8 8 8 8 8 8 8 8 9 10 10 10 10 11 11 11 11 12 11 11 11 11 12 12 12 13 13 13
13 13 14 14 12 11 12 12 11 12 11 10 10 10 10 9 9 9 11 11 9 9 9 9 8 8 8 8 7 8 8 8 6 6 7 7 7 7 7 7 7 7 6 6 6 6 6 6 6 6 6 6 6 6 7 8 8 8 7 7 7 7 7 7 8 8 9 9 9 10 10 10 11 11 11 11 11 11 11 11 12 12 12 12 12 12
13 12 13 13 12 11 11 11 10 10 10 9 9 10 10 9 10 11 12 11 10 9 9 9 8 8 8 8 8 8 8 7 7 7 7 7 7 7 7 7 7 7 7 6 6 6 6 7 7 7 6 6 6 6 7 7 7 7 6 6 6 7 6 7 8 8 9 9 9 9 9 10 10 10 10 10 11 11 11 11 11 12 12 12 12 12
12 11 11 11 11 10 10 10 10 10 9 9 9 9 9 10 11 12 12 11 9 9 9 9 8 8 8 8 8 8 8 8 8 8 7 7 7 7 7 7 7 7 7 7 6 7 7 7 7 7 7 7 7 7 7 7 6 6 5 5 5 5 6 7 8 8 8 8 9 9 9 9 10 10 10 10 10 11 11 11 11 11 12 12 12 12
11 11 11 10 10 10 9 10 10 10 9 8 8 8 9 11 11 11 10 9 9 9 9 9 8 8 8 8 8 8 8 8 8 8 7 7 7 6 6 7 7 7 7 7 7 7 7 7 7 7 7 7 7 7 7 7 6 6 6 6 5 5 6 6 7 7 8 8 8 8 8 9 9 9 9 9 10 10 10 10 10 11 11 11 12 12
9 10 10 9 9 9 9 9 10 10 9 7 8 9 10 10 10 9 9 9 9 9 9 9 8 8 8 7 7 7 7 7 7 7 7 6 6 6 6 6 6 6 7 7 7 7 7 7 6 6 6 6 7 7 7 7 6 6 6 5 5 6 6 6 7 7 7 7 7 7 7 8 8 8 9 9 9 9 9 9 10 10 10 11 11 11
8 9 9 8 8 9 9 8 8 8 7 7 8 9 8 8 9 9 9 9 9 9 9 8 8 8 7 7 6 6 6 6 6 6 6 6 6 5 5 6 7 7 7 7 7 7 7 6 6 5 6 6 6 6 6 6 6 6 5 5 5 6 6 6 7 7 7 7 7 6 7 7 7 7 8 8 8 9 9 9 9 9 9 9 10 10
8 9 9 7 7 7 8 7 7 7 7 7 7 7 7 7 8 9 8 8 8 8 8 8 7 7 7 7 6 6 6 6 6 6 6 6 5 4 5 6 7 7 7 7 7 7 6 6 5 5 5 5 5 6 6 6 6 5 5 5 5 6 6 6 6 6 6 6 6 6 6 7 7 7 7 7 7 8 8 8 8 8 8 8 9 9
8 8 8 8 7 7 8 8 8 7 7 7 7 7 7 8 8 8 8 8 8 8 8 8 7 7 7 7 7 6 6 6 6 6 6 6 4 4 5 6 6 7 7 6 6 6 6 6 5 5 4 4 5 5 5 5 5 5 4 5 5 5 6 6 6 6 5 5 5 5 5 6 6 6 6 6 6 6 6 6 7 7 7 7 8 8
9 9 8 8 8 7 7 7 7 8 7 8 8 8 8 8 8 8 7 7 7 7 7 7 7 7 7 7 7 6 6 6 6 6 6 6 4 4 4 5 5 6 6 6 6 6 6 5 5 4 4 4 4 4 4 4 4 4 4 4 4 5 5 5 5 5 5 5 5 5 5 5 5 5 6 6 6 6 6 6 6 6 6 6 7 7
9 9 9 8 7 7 7 7 7 8 8 8 8 8 8 8 7 7 7 7 7 7 6 6 7 7 7 7 6 6 6 6 6 6 6 5 4 3 4 4 4 4 5 5 6 6 5 5 4 4 4 3 3 4 4 3 3 3 4 4 4 4 4 4 4 4 4 4 4 4 4 4 4 5 5 5 5 5 5 5 5 5 5 5 5 6
9 9 8 7 7 7 7 7 8 8 8 8 8 8 8 8 7 7 7 7 7 7 6 6 6 6 6 6 5 6 6 5 5 5 5 4 3 3 3 4 4 5 5 5 5 5 5 5 4 4 4 3 3 3 3 3 3 3 3 3 3 3 3 3 3 3 3 3 3 3 3 3 4 4 4 4 4 5 5 5 5 5 5 5 5 5
8 8 7 7 7 7 7 8 8 8 7 8 8 8 8 8 8 7 7 7 7 7 7 6 5 5 5 5 5 6 7 6 4 4 4 4 3 4 4 4 5 5 5 5 5 5 5 5 4 4 3 3 3 3 3 2 2 2 2 2 2 2 3 3 2 2 2 2 2 2 3 3 3 3 3 3 3 4 4 5 5 5 5 5 5 5
8 8 8 8 8 8 8 8 8 8 8 7 8 8 8 8 8 7 7 7 7 6 6 7 7 6 6 5 5 6 5 5 5 4 4 3 4 5 5 5 5 5 5 5 5 5 5 4 4 4 3 3 2 2 2 2 2 2 2 2 2 2 2 2 2 2 2 2 2 2 2 2 2 3 3 3 3 3 3 4 4 5 5 4 5 5
Height
750 757 761 760 760 760 759 758 759 760 761 763 766 768 769 770 765 755 751 744 740 746 744 738 740 739 734 732 735 737 738 742 745 746 749 752 754 754 753 753 753 756 756 756 757 758 759 758 759 760 761 762 764 766 768 770 772 774 776 777 779 782 783 785 786 789 792 795 797 799 801 803 805 806 808 810 811 812 814 815 816 817 818 819 820 821
751 759 758 756 757 755 754 756 759 761 762 764 766 767 769 770 764 753 750 744 739 748 746 737 741 738 731 732 734 736 739 741 742 746 749 751 753 752 751 752 753 755 756 756 757 758 759 759 760 762 762 762 764 766 769 770 773 775 776 778 780 783 785 786 788 790 793 795 797 799 801 803 805 807 808 810 811 812 814 815 816 817 818 819 820 821
758 759 754 752 753 752 755 758 762 763 763 766 767 770 770 767 762 752 747 742 738 745 744 738 742 736 730 734 734 733 734 735 735 738 742 746 749 750 749 751 752 754 755 755 756 757 758 760 761 763 763 763 765 767 769 771 773 775 777 779 781 784 786 788 790 792 794 796 798 800 802 804 806 808 809 811 812 813 814 815 817 817 818 819 820 821
763 755 748 749 752 754 757 759 762 764 765 768 768 772 770 764 764 759 749 743 740 743 742 741 743 738 735 736 734 735 732 731 735 737 740 742 742 744 745 747 750 752 753 754 755 756 758 760 762 763 763 764 766 768 769 771 773 775 777 779 782 784 787 789 791 793 795 797 800 802 803 805 806 808 810 812 813 814 815 816 817 818 818 819 820 820
758 747 742 747 752 755 757 758 763 766 767 768 766 769 767 761 762 761 753 748 744 744 743 744 745 740 741 741 740 740 736 734 738 741 745 746 743 744 746 748 750 750 751 752 754 755 757 760 762 763 763 764 766 768 770 772 773 775 777 779 782 784 787 789 791 794 796 798 800 802 803 806 807 809 811 812 813 814 815 816 817 818 818 819 820 821
752 743 741 746 751 754 757 758 760 763 766 766 761 760 759 756 756 756 754 754 752 750 744 746 754 750 746 749 750 747 742 742 744 743 747 748 746 747 749 749 751 751 751 750 753 755 758 760 762 763 763 764 767 769 771 773 774 775 777 779 782 785 787 790 792 794 796 798 800 801 802 805 807 809 811 812 813 814 815 816 817 818 819 819 820 821
745 739 740 744 748 752 757 758 756 758 766 767 755 748 750 752 754 755 755 756 756 755 745 746 761 760 750 753 758 755 750 750 749 746 747 748 747 748 749 749 749 750 751 752 755 757 759 761 762 762 763 765 767 769 772 773 775 776 777 780 782 784 787 790 792 794 796 798 799 801 802 804 806 808 810 812 813 814 815 816 818 818 819 820 820 821
738 739 741 743 747 752 757 756 751 752 762 762 745 740 746 749 753 753 752 754 752 751 747 745 755 757 752 756 760 757 756 755 753 751 750 749 749 748 747 747 747 748 750 754 757 758 760 761 761 762 763 765 768 770 772 774 775 776 778 780 782 784 787 790 792 794 796 798 800 801 803 805 807 808 810 811 813 815 816 817 818 819 819 820 821 821
734 738 741 742 748 753 750 744 742 747 754 747 734 737 742 743 748 747 749 754 753 753 752 745 748 754 756 760 760 758 760 760 756 754 752 750 750 749 748 748 748 749 752 756 758 759 760 760 761 762 764 766 769 770 772 773 774 776 778 780 782 784 787 789 792 794 797 799 800 801 803 805 808 809 810 812 813 815 816 817 819 820 820 821 822 822
733 733 733 739 746 746 739 733 737 744 744 734 731 738 739 741 746 745 748 752 753 761 758 744 744 751 756 760 763 764 763 760 757 754 752 751 750 749 749 750 750 751 754 757 759 760 761 761 762 764 765 767 769 771 772 773 774 776 778 780 782 784 787 789 792 795 797 800 801 802 803 805 807 809 810 812 814 815 817 818 819 820 821 822 822 823
731 729 729 734 736 733 729 728 731 735 732 728 734 740 741 744 744 746 751 751 757 766 753 740 741 745 751 758 761 762 758 754 754 754 754 752 750 750 750 752 752 753 755 758 760 761 762 762 763 765 766 767 768 771 772 773 774 776 778 779 782 784 787 790 793 795 798 800 801 803 804 806 807 808 810 811 813 815 816 818 819 820 821 822 822 823
733 732 731 726 723 724 726 727 728 728 728 731 737 740 745 749 747 752 756 755 766 767 746 740 743 740 748 754 752 752 750 749 748 748 748 748 748 750 752 754 755 756 758 760 762 763 762 762 763 765 766 767 768 770 772 773 775 776 778 780 782 785 787 790 792 795 797 800 802 804 805 806 808 809 810 811 813 814 815 817 818 820 821 821 822 823
734 732 729 722 718 719 725 732 732 730 732 736 739 742 750 759 760 762 764 765 768 759 746 747 745 741 750 754 751 751 750 748 746 742 742 743 745 749 752 754 755 756 758 760 763 764 764 762 762 764 765 766 768 770 772 773 775 776 778 780 782 785 787 789 792 794 797 799 801 803 805 807 808 809 811 812 813 814 815 816 818 819 820 821 822 823
739 733 726 724 720 714 720 732 735 734 734 736 738 742 752 764 773 775 774 774 767 752 749 751 743 745 754 754 753 753 749 745 743 742 741 742 745 747 749 750 751 753 754 757 762 764 764 763 761 763 763 764 766 768 771 773 774 776 778 780 782 784 787 789 791 794 796 798 801 803 805 807 808 810 811 813 814 815 816 817 818 819 820 822 823 824
748 742 727 722 720 713 714 719 721 724 729 732 730 734 744 753 763 768 765 764 760 751 751 749 747 755 758 753 753 750 745 742 740 741 742 744 746 747 748 750 751 753 754 755 759 763 765 763 762 762 762 763 766 768 770 772 773 775 776 779 781 783 785 788 790 793 795 798 800 803 805 807 809 810 811 813 814 815 817 818 819 820 821 823 824 826
748 742 722 715 716 712 712 710 708 715 726 733 730 732 740 738 741 755 760 758 755 752 756 759 761 764 759 752 751 747 746 745 743 745 746 747 749 751 754 758 759 759 757 756 759 763 765 765 764 764 763 765 767 768 770 771 772 774 776 778 780 782 785 787 789 792 794 797 800 802 804 806 808 810 811 813 815 816 817 819 820 821 822 823 825 827
745 739 720 715 715 710 709 708 706 712 722 732 734 731 733 730 730 747 762 765 759 754 764 773 769 764 758 754 752 750 751 753 752 752 752 752 753 755 760 763 764 762 760 760 762 765 766 766 766 767 767 768 769 770 771 771 772 774 775 777 780 782 785 787 790 792 794 797 799 802 804 806 808 809 811 813 815 817 818 819 821 822 823 824 825 827
742 738 723 719 719 709 706 707 706 707 713 725 731 726 728 734 734 741 755 767 766 761 769 776 772 768 765 761 757 756 759 762 761 759 759 760 760 763 766 766 765 764 762 763 764 765 767 767 769 771 771 772 772 773 773 773 775 775 776 778 780 783 785 788 790 792 794 796 798 801 802 804 807 808 811 813 815 817 818 820 822 823 824 824 825 827
737 740 727 719 721 713 706 711 714 711 709 714 719 717 723 737 742 744 752 762 766 768 774 777 776 775 773 769 767 767 770 770 767 765 764 764 767 769 770 768 766 765 764 765 766 766 767 769 771 773 774 775 776 776 777 777 778 779 780 781 782 784 787 789 791 792 793 795 796 799 801 803 805 808 810 813 815 817 819 821 822 823 825 825 826 828
734 743 735 720 719 717 712 717 723 720 713 712 716 720 723 731 738 743 747 751 756 765 776 779 777 774 774 775 774 773 774 771 768 768 767 767 769 770 770 769 767 765 765 765 766 767 769 770 771 772 774 776 777 779 779 780 781 782 783 784 785 786 788 789 791 792 793 794 795 797 800 803 805 807 810 812 815 817 819 821 823 823 825 826 827 829
733 743 742 726 718 721 723 724 726 724 719 717 721 727 728 730 735 740 746 749 749 756 768 774 776 775 771 772 773 772 772 769 767 769 768 768 769 769 770 769 766 765 765 765 764 766 769 770 772 774 776 777 778 780 780 781 782 783 784 786 787 789 789 789 791 792 793 794 796 798 801 803 806 808 810 812 815 817 819 821 822 823 825 826 828 829
733 740 743 735 728 730 730 726 725 724 722 721 723 728 731 732 733 739 749 753 749 752 761 764 771 777 773 769 771 772 771 769 768 768 768 769 769 770 771 770 769 769 768 766 765 766 768 768 769 772 774 776 777 779 781 782 783 783 785 789 791 791 790 790 791 792 794 795 796 798 800 803 805 807 810 812 815 817 819 821 822 823 825 826 828 829
731 737 742 740 737 737 734 726 723 725 724 722 725 733 735 733 731 734 743 749 749 756 762 760 766 775 774 771 771 772 771 770 770 769 769 770 771 771 773 773 774 774 771 769 768 768 769 769 769 769 770 772 774 775 778 781 783 784 786 788 791 791 791 792 792 793 794 795 796 797 799 801 804 807 810 812 815 817 819 821 822 823 825 826 828 829
732 740 743 741 740 736 730 724 722 723 723 723 728 736 737 735 735 733 736 739 744 755 759 758 769 777 773 772 773 773 773 772 771 771 771 772 773 774 775 775 776 775 773 771 771 771 772 772 772 771 770 773 775 776 778 781 783 783 783 784 786 789 791 792 792 793 794 794 795 797 798 801 804 806 809 812 814 816 819 821 822 823 825 826 828 829
736 747 746 746 751 748 742 737 730 726 727 730 734 738 736 736 738 738 740 738 743 756 754 751 768 780 775 773 775 774 775 775 774 775 775 776 776 775 776 775 775 775 774 773 772 773 774 775 775 773 772 775 778 779 780 782 783 783 782 782 784 786 788 790 791 792 793 794 795 797 798 800 803 806 808 811 814 816 818 821 823 824 825 827 827 828
737 751 749 747 755 758 756 752 745 741 741 741 741 739 736 735 734 736 740 737 743 760 760 754 767 779 776 775 777 777 777 777 777 777 778 779 779 777 776 776 777 777 777 776 775 775 776 778 779 777 777 778 779 780 782 783 784 784 784 785 785 785 787 789 791 792 793 795 796 797 799 800 803 805 808 811 814 816 819 821 822 823 825 826 827 827
740 754 756 753 752 754 757 757 753 750 747 744 743 741 739 738 735 735 738 739 747 761 767 767 771 774 776 777 778 778 779 779 780 781 781 784 784 781 780 781 781 781 781 781 780 780 781 783 782 781 780 780 781 782 783 784 786 786 786 787 787 788 788 789 791 792 795 796 796 798 800 802 804 805 808 812 816 818 819 820 821 823 824 825 826 826
741 754 761 762 760 761 762 760 756 753 751 752 752 748 745 743 735 732 740 751 754 755 763 773 772 771 775 778 779 782 783 784 787 788 789 790 788 785 784 784 785 785 785 785 785 786 787 787 786 785 783 783 783 784 785 786 787 788 788 788 789 789 790 791 792 793 794 795 796 797 799 802 805 806 808 812 816 817 818 819 820 822 823 824 824 825
745 756 762 764 766 767 765 759 756 757 759 763 764 759 756 752 742 737 749 761 757 750 759 770 773 775 782 785 789 791 790 792 795 795 795 794 791 789 788 789 790 791 791 791 791 791 791 790 789 787 786 785 785 785 786 788 788 789 790 790 790 791 791 793 794 795 795 796 797 798 799 801 803 805 807 810 812 814 815 817 819 820 821 822 823 824
747 759 762 761 765 770 767 761 760 761 762 764 768 768 766 763 758 754 760 765 759 756 764 771 777 787 792 794 796 796 794 796 797 798 798 798 796 794 793 794 796 797 796 796 796 795 794 793 792 790 789 788 787 787 787 788 790 791 792 792 792 792 793 794 795 797 797 798 799 799 800 801 803 804 806 808 810 812 814 816 818 819 820 821 822 823
745 758 763 760 766 774 772 766 763 765 766 764 767 772 771 768 767 766 767 766 764 768 775 778 783 793 797 797 798 797 796 797 799 801 803 802 801 799 798 799 801 801 800 800 799 798 797 796 795 793 793 792 791 790 789 790 791 792 793 794 794 794 794 795 796 797 798 799 800 801 801 803 804 805 806 807 809 811 813 815 816 818 819 820 821 823
744 758 764 760 766 777 777 774 771 767 765 763 767 779 782 775 772 772 772 770 767 770 778 779 782 792 799 800 800 800 800 801 804 806 806 807 807 804 802 804 804 804 804 803 802 801 800 799 799 798 797 796 794 793 793 793 793 794 795 795 795 795 796 796 797 798 798 799 800 801 803 804 805 805 806 808 809 811 813 814 816 817 818 820 821 822
747 754 759 758 767 779 782 780 776 768 764 766 776 789 791 781 775 775 775 775 771 770 774 776 782 793 800 801 803 806 807 808 810 811 810 811 812 809 807 807 807 807 807 806 805 805 804 804 803 802 801 799 798 798 797 796 796 797 798 797 797 797 797 798 799 799 800 801 802 803 805 806 806 806 808 809 811 812 814 815 816 817 818 819 821 822
752 752 757 759 766 778 782 780 775 771 772 777 785 791 790 783 779 779 782 784 782 779 780 783 790 797 800 801 805 809 811 813 815 815 814 814 814 813 811 811 811 810 809 808 808 808 808 808 806 806 805 804 804 803 801 800 800 801 801 800 800 799 799 800 801 801 803 803 804 806 807 808 808 808 810 812 813 815 815 816 817 818 819 820 821 822
753 753 758 762 766 776 781 776 771 773 779 784 786 787 787 785 784 785 789 791 790 788 789 794 799 803 805 805 807 809 811 814 816 818 818 817 817 815 813 813 815 813 812 812 811 811 811 810 809 809 809 808 808 807 805 804 805 805 804 804 803 803 802 802 802 804 805 805 807 808 810 811 811 810 811 813 815 816 817 818 819 820 820 821 821 822
750 752 757 764 769 775 779 775 772 779 787 787 784 785 786 785 784 785 788 793 795 794 793 798 805 809 811 810 810 811 812 813 815 819 821 820 820 818 816 817 817 817 816 815 815 815 815 814 813 812 812 812 811 810 809 809 808 808 808 807 807 807 805 803 804 806 807 807 809 810 811 812 811 811 812 813 815 816 817 818 820 820 820 820 821 822
747 749 753 763 772 776 780 785 786 787 789 787 786 788 789 789 790 791 791 795 798 797 796 799 805 810 812 812 812 813 812 812 817 822 822 821 822 820 818 818 818 819 819 818 818 819 819 818 816 815 815 814 813 813 813 812 811 811 810 811 811 811 809 807 808 809 810 810 812 812 813 813 812 812 813 813 815 816 817 818 820 820 819 820 821 822
748 748 749 759 772 777 781 788 789 785 785 787 790 790 790 791 794 793 793 796 798 798 798 799 803 808 811 811 813 813 810 813 822 826 824 823 822 820 820 820 820 820 820 820 820 821 821 820 819 818 817 817 817 817 816 815 814 814 813 814 815 815 814 813 813 813 813 814 815 815 815 815 815 815 815 815 816 817 817 818 819 819 819 820 820 821
752 754 752 757 771 776 776 780 783 783 787 791 792 790 790 792 793 791 791 795 799 800 799 799 803 808 809 810 813 813 811 818 827 828 824 823 822 821 821 822 821 822 822 821 821 821 822 822 820 820 820 819 819 820 819 817 816 816 816 817 818 818 819 818 817 817 817 817 817 817 817 817 817 817 817 817 818 818 818 819 819 819 819 819 820 820
757 761 760 764 774 779 779 784 788 789 792 794 793 792 791 791 790 787 785 790 797 799 800 802 805 808 810 812 813 813 814 820 826 826 824 824 824 823 823 823 823 823 823 824 824 823 823 823 821 821 821 822 823 823 821 820 819 819 820 821 821 822 823 822 821 820 820 820 819 818 819 818 818 818 818 819 819 819 819 819 819 819 819 819 819 820
768 770 772 776 782 784 785 789 793 794 796 797 796 795 792 789 788 787 786 790 796 800 802 805 807 809 812 813 813 814 815 817 820 822 824 825 825 825 825 825 825 826 826 827 826 826 825 824 823 823 823 824 825 825 824 823 822 823 824 824 824 824 825 824 824 823 822 822 821 821 820 819 818 818 818 819 819 819 819 819 820 820 820 820 820 820
778 779 780 784 787 790 792 793 793 794 798 799 798 795 791 788 789 791 792 794 797 799 802 806 809 810 812 813 814 815 817 818 820 823 825 826 827 828 828 828 828 829 829 829 829 828 827 827 827 827 827 827 826 826 825 825 825 826 826 826 826 828 827 826 825 825 824 824 823 823 822 821 820 819 819 819 819 819 819 820 821 821 821 821 820 820
788 787 789 795 795 793 795 796 792 793 798 800 797 794 792 792 793 794 795 796 797 799 803 807 810 811 812 815 817 817 818 821 824 825 827 828 828 829 829 829 830 831 831 831 831 831 830 830 830 830 830 830 829 829 828 826 826 827 827 828 830 831 830 828 827 827 827 826 826 825 824 823 822 821 821 820 820 820 820 821 821 822 822 822 821 821
793 789 792 802 803 797 799 804 802 801 804 803 798 796 798 799 797 795 796 799 800 802 805 808 813 814 813 814 818 820 822 824 827 828 829 830 830 830 831 831 831 832 832 833 833 833 832 832 832 832 833 833 832 832 831 830 829 829 830 831 833 832 831 830 829 828 828 828 827 827 826 825 825 824 823 822 822 822 821 821 822 822 822 822 822 821
798 794 793 803 808 805 807 811 810 808 808 805 801 802 803 802 800 798 798 801 805 806 808 810 815 817 816 816 819 822 825 827 829 830 830 831 832 832 832 832 833 833 834 834 834 834 834 834 835 835 835 835 835 835 834 834 833 833 834 835 835 834 833 833 831 830 830 830 829 829 828 827 826 825 824 824 823 823 822 822 822 822 823 823 822 822
800 797 796 803 808 808 808 810 809 809 808 805 804 805 805 805 805 803 802 805 809 810 811 812 815 818 819 819 821 825 827 829 830 831 832 833 834 833 833 834 834 834 835 835 836 836 836 836 837 837 837 837 837 837 837 836 836 836 837 837 837 836 835 834 833 832 832 832 832 831 830 829 828 827 827 826 826 826 825 825 824 824 824 824 824 824
797 796 798 804 807 809 813 815 812 810 810 809 807 807 807 808 809 808 808 811 813 814 814 816 817 820 821 821 823 826 829 830 831 833 834 834 834 835 835 835 836 836 836 836 837 837 838 838 838 839 839 840 840 840 839 839 838 838 839 838 837 836 835 834 833 833 832 832 833 832 832 831 831 830 830 829 829 828 828 827 827 826 826 825 824 825
797 796 800 806 809 811 816 817 814 811 811 811 810 810 811 811 812 812 813 815 817 818 819 819 820 822 823 824 826 828 830 832 832 833 835 835 835 836 836 836 837 837 837 838 838 838 838 839 840 840 841 841 842 842 841 841 840 840 840 839 839 838 837 836 835 834 834 834 833 833 832 832 831 831 830 830 830 829 829 829 828 828 828 827 826 826
799 799 804 809 812 815 817 817 814 814 815 815 813 814 814 814 815 816 816 817 819 820 822 823 824 825 826 827 828 829 831 833 833 833 835 836 836 836 837 837 837 838 838 839 839 839 840 840 841 841 841 842 842 842 841 841 841 841 841 840 840 839 838 837 837 836 836 835 835 834 833 833 832 832 831 830 830 830 829 829 828 828 828 828 828 828
803 806 809 812 815 817 816 814 813 814 818 819 816 815 816 816 816 818 819 820 821 822 823 825 827 828 828 828 829 829 832 833 833 834 835 836 837 837 838 838 838 839 839 839 840 840 841 841 841 842 842 842 843 842 842 842 842 841 841 840 840 839 838 838 837 837 837 836 836 835 835 834 833 833 832 832 831 830 829 829 829 828 827 827 827 827
805 807 808 809 812 813 811 812 813 814 817 819 818 817 818 817 817 819 821 822 823 824 824 826 828 829 830 830 830 830 832 834 834 834 836 837 837 838 838 839 839 839 840 840 840 841 841 841 842 842 843 843 843 843 842 842 842 842 841 841 840 840 839 838 838 838 837 837 836 836 835 835 834 833 833 832 831 831 830 829 828 828 827 827 826 826
Wind_Speed
3 3 5 6 5 4 6 7 7 5 1 1 2 2 4 4 7 8 5 6 3 3 6 7 7 8 11 10 5 10 8 8 9 9 8 9 10 9 10 10 9 8 7 9 15 13 9 12 15 17 19 18 19 22 23 22 22 23 23 24 25 27 28 28 26 25 23 22 20 18 16 15 13 12 12 13 12 12 12 12 11 12 13 13 13 13
3 6 8 5 6 6 7 7 6 3 1 2 3 4 5 4 7 9 5 8 4 1 6 7 6 9 13 9 3 10 10 10 13 13 11 11 11 9 10 11 9 6 4 7 9 8 9 12 14 16 17 19 21 22 23 23 23 23 22 23 25 26 27 27 27 26 24 22 20 19 17 15 13 12 12 12 12 12 13 13 13 13 14 13 12 12
2 6 7 5 7 6 4 2 4 3 3 3 2 2 5 4 5 8 5 6 3 3 5 7 6 11 10 2 5 11 12 12 13 15 15 15 14 12 12 12 10 8 7 7 7 7 10 12 14 15 15 18 21 22 23 23 23 23 22 23 24 25 25 25 25 25 23 21 19 17 17 15 13 13 12 11 11 13 15 15 14 13 13 12 12 11
4 6 7 7 6 5 3 2 4 2 2 2 3 1 5 4 2 5 4 4 2 2 5 6 6 8 4 4 4 4 7 7 7 10 12 14 15 14 13 12 11 11 10 10 8 7 9 12 12 12 14 17 19 20 22 24 25 25 24 24 24 25 25 24 24 23 21 20 17 15 15 14 13 14 13 12 13 15 16 15 13 12 11 11 11 11
9 8 4 6 6 7 6 4 4 4 3 3 5 5 5 6 5 7 5 4 4 5 4 2 5 6 4 3 2 5 1 4 7 10 9 8 9 10 9 9 9 10 11 11 11 8 8 10 10 12 15 18 18 19 22 24 25 26 25 25 25 24 24 24 24 22 19 18 17 16 16 14 13 14 15 15 16 16 15 13 12 11 11 12 13 13
11 8 5 6 5 6 6 6 5 7 4 4 5 8 10 9 9 9 7 4 5 5 3 3 4 6 6 4 4 6 3 6 5 10 12 9 8 8 8 8 8 8 8 9 8 6 8 9 10 13 15 17 18 18 21 24 25 26 26 26 25 24 23 23 23 21 19 18 18 19 19 18 18 17 17 17 18 16 14 13 13 14 14 14 15 14
6 4 6 6 6 6 6 6 5 8 5 4 6 10 13 11 9 9 7 3 1 5 4 3 1 4 5 6 6 5 4 8 5 8 11 9 9 9 8 9 9 8 7 6 4 4 7 8 9 12 15 18 18 18 21 24 24 25 26 26 26 25 23 22 21 20 19 19 19 21 22 22 22 21 19 18 17 16 15 16 16 16 15 14 13 12
4 4 5 5 5 6 5 5 6 10 7 5 6 8 9 9 9 9 7 5 3 4 4 2 3 2 3 4 5 3 7 9 7 9 9 8 9 9 9 9 9 9 7 5 4 5 7 8 10 11 15 18 18 19 22 24 24 25 26 26 26 25 23 22 21 20 20 20 21 23 22 22 23 22 20 19 18 18 18 18 17 16 14 13 12 10
2 4 6 6 4 4 5 7 8 11 6 8 7 7 7 8 9 9 6 4 2 2 5 6 2 2 4 4 4 4 6 9 10 12 11 9 10 9 9 8 7 6 5 4 5 7 8 10 13 15 16 18 19 21 23 24 24 25 25 26 26 25 24 22 21 20 20 22 24 24 23 22 22 21 20 19 18 19 19 19 17 15 14 13 11 10
2 6 7 7 4 5 8 9 8 12 8 8 5 5 4 3 3 3 4 3 1 2 4 8 0 3 3 4 2 2 3 7 9 10 10 9 9 8 7 7 5 4 4 5 5 6 8 10 15 17 17 19 20 21 22 23 24 25 25 26 25 25 24 22 21 20 21 24 25 25 25 24 23 22 21 19 18 18 19 19 17 15 14 13 12 11
4 3 4 5 5 6 9 8 8 15 12 3 4 4 3 1 3 2 2 4 2 1 7 9 4 4 1 4 3 2 3 6 8 7 7 7 8 8 7 5 4 3 4 5 6 7 9 11 17 19 17 19 21 21 22 23 23 25 24 24 24 23 23 21 19 19 21 24 25 26 26 26 24 23 22 21 20 19 19 20 19 17 15 14 12 11
5 3 2 4 6 6 6 6 4 10 10 3 3 3 2 3 4 4 4 3 3 4 7 7 5 4 2 3 4 4 4 7 11 11 13 14 12 8 5 2 1 1 2 5 6 8 8 9 14 18 16 18 22 22 22 22 22 23 23 23 23 21 21 20 17 18 20 23 25 25 25 24 24 23 22 21 21 21 21 22 21 18 16 14 12 10
5 4 4 4 5 6 5 4 2 1 4 5 3 4 3 2 3 2 2 0 2 5 6 5 2 3 2 4 4 5 6 8 10 8 11 15 11 7 5 4 3 3 4 6 7 7 7 6 9 15 17 18 22 22 21 21 21 21 22 22 22 21 20 19 18 18 21 23 24 24 23 22 22 22 20 20 21 22 22 22 21 18 16 14 12 10
4 5 4 3 4 4 8 4 2 1 4 6 5 4 4 2 1 2 3 1 2 4 4 5 2 1 2 3 4 7 7 8 7 3 5 10 10 9 9 8 8 9 9 7 6 7 8 6 8 15 18 18 20 22 22 22 21 21 22 22 22 21 20 19 19 20 22 24 25 24 23 22 21 21 19 20 21 21 20 20 19 17 16 14 13 11
3 4 4 5 4 2 7 8 7 5 5 5 5 6 4 4 4 3 3 3 3 3 3 5 1 1 2 2 6 7 4 2 4 3 4 5 3 4 7 8 8 7 7 5 5 7 8 7 10 15 18 18 19 21 23 23 23 22 23 23 22 22 22 21 21 22 23 24 25 25 23 22 22 21 20 20 20 19 19 19 18 16 15 14 13 13
4 5 7 6 4 2 4 5 6 6 3 3 2 6 3 4 5 2 3 5 3 2 2 3 0 2 3 3 6 5 5 6 6 5 4 3 2 3 2 1 1 1 1 2 3 5 6 7 10 12 15 17 18 21 23 24 24 23 23 23 23 24 23 23 23 23 23 24 24 24 24 24 24 23 23 22 20 19 19 18 17 16 15 14 14 14
2 5 7 4 4 4 5 5 4 4 3 1 2 3 3 4 7 4 1 0 2 3 1 2 1 4 2 2 6 7 9 9 8 6 5 4 5 5 5 4 4 3 3 3 2 3 5 6 9 9 10 13 15 18 21 23 23 24 24 24 23 24 23 22 22 22 22 22 22 23 24 25 25 25 24 23 21 20 19 18 17 16 16 15 13 13
2 4 7 4 6 8 5 4 1 1 5 4 2 5 2 3 4 4 2 3 4 2 2 2 1 2 1 0 4 7 9 10 10 9 8 8 8 7 6 6 5 5 5 4 3 2 3 5 6 5 5 9 13 16 19 21 22 22 24 26 25 24 23 22 21 21 20 21 21 23 24 25 25 25 24 23 21 21 20 19 17 17 16 15 13 13
2 2 8 4 5 7 3 2 1 5 2 5 4 3 4 3 0 1 3 1 1 2 1 2 1 1 1 1 5 7 7 7 8 8 8 8 7 5 5 5 6 6 6 5 4 4 3 2 3 4 4 5 9 13 16 17 18 19 20 22 24 25 24 22 21 21 20 21 22 23 24 25 25 25 24 22 21 21 20 18 17 16 15 14 13 12
2 1 6 5 3 3 5 3 1 4 3 3 3 2 2 3 4 2 3 3 3 3 1 0 1 2 2 2 5 7 5 2 4 6 7 6 5 4 3 3 4 5 5 5 5 5 6 7 8 8 8 8 8 10 11 12 13 14 15 17 20 22 24 23 23 23 22 22 22 23 23 24 24 23 22 21 22 21 19 17 15 14 13 13 13 12
2 2 4 6 5 3 2 1 2 4 2 3 2 1 1 2 3 2 1 2 4 4 3 3 1 3 2 2 5 6 4 2 3 4 4 4 5 5 4 2 3 5 5 4 6 6 7 11 16 17 14 12 10 8 9 11 12 13 14 16 18 20 23 24 23 23 23 22 21 22 22 22 22 22 21 21 21 20 18 16 14 13 13 13 13 12
1 2 2 4 4 2 3 3 1 2 4 6 3 3 3 2 3 3 1 1 3 4 4 5 2 4 2 2 3 3 1 1 3 4 4 4 5 4 3 2 2 3 4 4 6 7 7 11 15 16 15 15 13 9 8 9 10 11 13 15 18 20 21 23 23 24 24 22 22 23 23 23 22 22 22 22 20 20 20 18 16 15 14 14 13 12
2 4 2 2 2 3 7 5 3 3 2 6 3 2 3 2 3 5 3 3 2 3 2 4 2 2 2 2 3 4 4 4 5 5 6 6 5 5 5 4 2 2 3 3 5 6 6 7 11 14 16 16 16 15 13 11 10 12 14 17 20 20 19 20 22 23 24 24 23 24 25 24 24 24 23 22 21 22 21 20 19 17 15 15 13 12
2 3 2 2 3 4 7 7 5 4 3 5 3 2 2 1 2 5 5 3 3 3 2 4 1 2 1 2 3 5 6 6 6 6 7 6 5 6 6 5 3 3 4 5 5 5 5 5 6 9 11 10 10 13 14 11 12 16 20 23 24 24 21 21 23 24 24 24 23 24 25 24 25 24 23 22 22 22 22 22 21 19 16 14 14 13
1 1 2 1 2 4 5 6 6 5 4 2 2 2 2 3 3 2 1 3 3 3 3 5 2 3 1 2 3 5 6 7 7 6 6 5 5 5 4 5 5 5 6 7 7 6 6 5 3 5 8 8 7 9 10 11 14 18 20 21 24 26 25 24 24 24 24 24 23 24 26 26 25 24 23 24 23 21 22 23 21 18 16 15 16 16
3 2 2 3 4 3 2 2 3 3 3 3 3 3 2 5 4 2 2 4 2 2 3 4 3 3 3 4 5 6 7 8 7 7 6 6 6 6 6 7 7 7 8 9 8 8 8 8 8 9 9 8 8 9 11 13 15 16 15 15 18 22 25 25 23 22 24 24 24 25 26 27 25 23 23 23 21 19 21 20 18 17 18 18 19 19
4 3 2 3 4 5 5 4 4 2 0 2 4 6 4 3 4 4 4 2 4 3 3 1 3 6 7 6 7 6 7 8 7 7 7 6 6 8 9 8 8 9 9 9 10 10 10 9 9 11 12 12 11 10 10 11 13 13 13 14 13 16 22 22 20 23 26 26 25 26 27 26 25 24 22 19 16 16 18 18 18 21 21 20 21 21
5 3 3 5 4 1 1 3 4 1 2 2 4 7 8 6 4 7 5 2 5 5 1 2 4 8 8 7 7 6 6 7 7 8 7 6 7 8 9 10 12 12 11 11 11 10 10 9 9 11 14 15 15 13 11 10 11 11 10 11 11 13 18 17 19 25 28 27 28 30 30 29 29 28 25 22 19 19 20 22 24 24 23 22 22 22
5 2 1 3 4 6 6 6 5 4 4 5 7 7 9 10 5 6 4 3 5 4 4 6 7 6 5 6 6 6 7 8 8 7 6 7 8 9 11 13 12 11 12 12 11 9 9 9 9 12 15 17 17 15 13 12 12 11 9 8 9 11 14 15 18 23 23 22 27 31 32 31 31 30 28 28 27 26 25 27 28 26 25 24 23 22
4 2 1 3 4 8 9 7 8 7 5 6 8 8 9 9 6 6 4 4 8 7 6 10 10 6 5 5 6 7 7 7 7 7 7 8 9 9 12 13 11 10 11 11 10 9 9 9 11 14 17 18 18 16 14 14 14 14 12 10 8 9 12 15 19 21 18 15 20 26 30 30 30 29 29 31 31 30 29 30 29 28 27 25 25 24
3 1 1 2 4 6 7 6 8 7 5 6 8 10 10 9 7 6 4 6 9 9 8 10 9 5 4 4 6 7 7 8 9 9 8 8 7 9 12 11 10 10 10 10 10 9 10 11 12 15 17 18 20 20 19 18 17 17 17 16 14 11 11 15 18 20 19 16 16 22 25 26 26 28 29 31 31 30 30 30 29 27 26 25 25 25
3 2 0 3 4 2 5 5 6 7 5 5 8 12 12 7 4 3 2 2 4 9 11 9 5 3 3 5 6 7 8 11 11 9 9 8 7 8 11 10 9 9 9 9 10 10 11 12 12 15 18 20 23 24 22 22 23 22 20 19 18 16 13 13 14 16 16 14 14 16 18 19 21 23 24 25 26 27 27 26 25 25 26 26 26 24
3 4 2 3 3 1 2 3 4 4 3 2 5 8 8 5 2 2 4 5 3 7 9 6 4 5 6 7 8 9 10 11 10 8 8 7 6 7 10 10 10 9 8 9 10 11 11 11 13 17 20 23 25 25 24 25 27 26 25 24 23 21 19 17 14 12 10 9 10 10 11 14 15 17 19 20 20 21 22 23 23 25 26 26 25 24
3 5 3 2 3 2 1 2 3 2 1 1 2 4 5 3 3 4 5 6 6 6 6 6 7 8 7 7 9 10 10 9 8 6 6 5 4 6 9 9 8 8 9 9 10 10 10 12 16 20 23 24 25 25 27 28 27 27 28 28 27 27 26 24 21 17 13 10 8 7 6 8 10 11 12 10 10 12 14 15 17 21 24 24 24 23
4 4 2 1 3 3 1 3 3 0 1 1 1 3 3 3 6 8 9 8 7 9 11 11 9 7 7 8 9 10 10 9 8 7 7 6 4 5 8 8 7 8 8 8 8 9 11 15 18 21 23 23 23 25 28 29 27 28 29 29 29 29 30 30 29 26 23 20 16 11 8 5 4 5 4 3 5 8 7 5 6 11 16 18 19 21
6 4 2 2 2 2 2 2 1 1 1 2 3 3 3 3 4 6 8 8 6 5 9 12 10 8 8 8 8 8 9 9 9 7 7 6 4 4 7 7 7 8 7 8 10 11 14 16 18 20 22 23 24 26 28 28 29 30 29 29 29 29 31 34 33 32 31 30 27 23 18 15 12 11 9 7 4 5 4 4 6 9 12 12 12 15
6 5 3 2 2 2 3 2 1 1 0 1 2 2 1 1 2 2 3 4 4 3 6 12 13 10 9 8 8 7 7 8 8 5 5 5 5 5 7 8 8 9 9 12 14 14 15 17 19 21 23 25 26 25 25 27 30 32 32 32 30 29 31 33 32 31 32 32 30 29 27 24 22 21 19 17 13 7 3 2 5 8 11 12 12 13
5 4 4 3 1 1 3 3 1 1 1 1 1 3 1 2 2 2 2 2 2 3 5 11 13 11 9 9 8 6 4 6 6 3 3 4 4 5 7 9 10 11 12 14 16 17 17 19 22 24 24 26 26 24 24 25 27 30 31 32 31 31 31 31 29 28 29 29 27 27 27 27 26 26 25 24 22 18 13 7 2 3 7 10 11 11
8 4 4 5 2 2 3 3 2 2 1 1 2 5 4 2 2 3 4 1 1 4 6 9 12 10 9 9 6 3 2 5 4 1 0 2 3 5 6 6 9 12 14 16 17 17 18 18 21 24 25 26 25 23 23 24 26 29 29 29 30 30 29 28 28 27 27 25 24 23 24 24 24 24 25 25 24 23 21 17 12 5 1 5 8 9
7 5 4 4 3 2 3 2 0 1 1 1 3 6 6 3 1 5 3 3 4 6 5 7 11 10 7 6 4 3 3 5 5 4 3 2 3 6 7 7 9 11 14 16 16 18 19 20 22 24 24 24 22 21 22 23 26 28 26 26 28 27 25 24 24 24 24 23 22 22 22 22 22 22 22 22 21 21 21 20 18 15 11 6 4 5
4 4 3 3 3 3 3 2 0 1 2 2 4 7 6 2 2 3 2 4 4 7 6 6 9 8 5 4 3 2 3 5 7 6 4 3 4 7 10 13 14 15 14 14 15 18 21 22 23 23 22 21 20 21 21 22 25 26 24 24 25 23 21 21 21 21 21 21 22 22 21 21 21 21 21 20 19 19 19 19 19 17 16 14 11 8
3 3 3 2 2 2 2 2 0 1 1 3 6 7 4 0 2 2 2 1 6 9 7 6 6 6 5 4 4 5 6 7 8 7 5 5 5 6 10 14 17 17 16 16 17 19 21 22 21 20 19 19 19 19 18 20 23 24 23 24 23 20 19 19 19 19 19 20 21 21 21 21 20 20 20 19 18 18 19 19 18 17 17 16 14 13
2 2 2 2 1 1 3 3 1 1 1 6 7 4 2 1 2 2 2 5 7 9 8 7 5 6 8 7 6 8 10 9 9 8 6 6 6 7 11 14 15 16 16 17 18 19 20 21 21 20 20 18 17 17 17 19 22 23 24 24 21 17 17 18 18 18 19 20 20 21 20 20 19 19 19 19 19 18 18 18 18 18 17 17 16 15
3 1 2 0 1 1 2 2 1 1 5 6 3 1 2 3 0 3 5 6 6 7 7 6 5 4 7 10 9 9 10 9 8 7 6 6 6 9 12 14 15 16 16 16 17 18 19 21 22 23 22 20 19 19 18 19 22 23 23 21 17 15 15 16 17 17 19 20 20 20 20 19 19 19 19 19 18 17 17 18 19 18 17 17 18 18
3 2 3 2 2 3 3 1 1 1 3 4 4 4 5 5 4 6 9 8 6 5 5 7 7 5 6 10 10 9 8 7 6 6 6 6 6 8 11 13 15 15 15 15 17 19 21 22 23 23 23 21 20 20 19 19 20 22 21 18 15 15 15 15 15 17 19 19 19 19 19 17 17 18 19 19 19 18 18 18 18 18 17 16 17 17
1 1 4 3 2 4 5 4 3 3 4 6 7 7 7 7 5 7 10 9 6 6 6 7 8 6 6 8 9 7 6 6 6 6 6 6 6 8 11 13 13 15 15 16 19 20 21 22 22 22 22 20 18 18 17 17 18 18 17 14 14 14 13 13 14 15 16 17 17 18 17 17 16 16 16 17 17 17 17 17 17 17 17 16 15 16
1 2 4 3 2 2 3 3 4 5 5 6 7 8 9 9 8 8 10 8 7 7 7 8 8 7 6 8 8 7 6 6 7 6 5 5 7 9 12 13 14 15 17 18 18 19 19 20 20 19 19 18 16 15 15 15 15 15 13 13 13 13 12 12 13 13 14 15 15 15 16 16 15 15 15 15 15 15 15 15 15 16 16 17 17 16
1 3 4 3 3 3 3 1 4 7 7 6 6 6 7 8 9 9 8 8 8 8 8 9 9 7 6 6 7 7 6 5 6 7 5 5 7 9 12 13 15 17 18 18 17 17 17 17 17 16 16 16 14 14 14 14 13 12 11 11 11 11 11 11 11 11 12 13 13 13 14 14 14 14 14 14 14 14 15 15 15 14 14 15 15 15
1 3 2 3 5 5 4 4 5 7 7 6 6 6 5 6 8 8 8 8 9 8 8 10 10 8 7 7 7 8 7 5 6 8 6 5 7 10 12 14 16 16 16 16 15 15 14 14 14 14 14 13 12 12 12 13 12 11 11 11 10 10 10 10 10 10 11 11 11 11 11 11 11 12 13 13 13 13 13 14 14 14 13 12 11 12
2 3 2 4 5 2 2 4 5 5 4 2 3 5 5 6 8 8 8 8 8 8 8 8 8 9 9 9 11 10 7 4 6 9 8 6 8 12 14 15 16 16 14 13 12 11 11 11 10 11 12 11 10 10 11 11 11 11 10 10 9 9 9 8 9 10 11 11 11 11 10 11 11 11 12 12 12 12 12 12 11 12 12 12 11 10
2 4 3 5 4 3 4 5 4 5 4 2 2 4 4 5 7 8 8 7 7 7 9 9 8 7 7 7 12 13 9 6 8 11 9 7 9 12 13 14 14 13 12 10 9 8 8 7 7 8 10 9 9 9 10 10 10 10 10 9 8 7 7 8 8 10 11 11 12 12 12 13 13 12 12 12 12 12 12 13 12 10 9 10 11 11
Wind_Direction
144 194 242 227 205 175 202 205 188 201 205 260 243 225 249 262 276 275 268 272 284 301 279 260 265 269 266 267 192 178 168 143 167 164 149 147 149 160 167 172 176 182 196 204 208 211 201 190 185 178 170 161 157 159 161 160 162 164 165 166 169 173 176 177 177 178 179 178 176 176 179 183 185 186 189 192 198 199 197 196 190 183 180 177 172 167
123 205 238 210 180 186 209 204 182 207 260 256 257 282 281 252 265 276 275 283 284 220 267 274 286 272 263 273 194 167 160 162 175 166 158 157 158 169 171 175 179 177 192 196 204 212 198 187 182 176 164 156 154 156 160 159 161 168 168 167 168 171 174 176 178 179 180 182 180 177 178 182 182 185 193 195 193 190 184 178 172 169 167 167 166 163
230 234 248 214 186 198 234 188 148 200 227 225 246 286 279 263 280 287 283 285 280 151 261 285 278 268 273 301 150 173 176 182 181 170 165 160 162 174 176 179 177 171 185 192 197 204 194 186 180 172 160 157 156 155 158 158 161 170 171 170 170 171 173 175 179 181 182 184 184 181 180 183 183 184 188 185 175 169 167 165 164 163 162 163 163 159
237 249 239 215 183 174 254 249 140 190 259 211 202 215 264 268 282 282 292 306 297 237 264 287 283 279 309 83 135 209 197 179 156 154 163 165 169 176 178 179 174 174 180 186 198 203 191 185 178 166 157 157 157 155 157 158 162 170 173 175 173 173 176 178 180 183 183 182 181 182 181 183 181 175 171 167 162 161 162 162 162 162 159 157 154 148
239 244 187 159 163 170 224 249 171 195 263 239 205 194 241 260 236 240 281 315 320 307 271 316 325 309 336 68 48 344 353 131 118 131 154 177 172 167 170 176 178 182 179 179 194 198 185 182 170 157 155 155 157 160 160 159 163 170 176 178 175 176 179 181 184 185 184 179 175 173 169 166 162 159 161 161 161 164 162 159 156 156 153 147 143 140
246 240 127 125 161 172 204 237 197 182 225 270 224 202 216 240 244 247 279 322 357 324 287 56 360 306 326 15 21 351 59 115 134 149 159 173 166 163 173 178 186 193 185 182 192 185 173 170 155 152 155 154 157 163 164 164 166 171 176 177 176 178 180 182 184 186 184 181 177 171 162 156 153 155 162 162 160 162 157 153 152 149 145 140 139 138
243 203 143 159 176 173 199 237 210 170 181 266 235 203 208 223 239 246 255 262 330 283 267 80 115 261 313 359 357 345 103 122 141 153 161 169 166 172 181 181 186 188 185 187 185 158 160 161 152 153 154 154 157 162 167 168 168 171 173 176 178 179 181 181 183 186 186 183 179 174 166 160 157 157 161 160 155 154 153 151 149 144 140 138 139 138
201 168 166 174 167 175 203 239 209 161 154 248 226 185 198 214 221 227 222 210 226 271 300 32 125 185 295 324 350 16 120 132 145 155 164 174 174 181 185 188 190 183 175 172 172 165 167 165 157 153 151 155 159 160 167 171 170 172 173 175 178 179 181 182 182 185 186 183 178 174 168 162 162 159 157 157 153 152 153 150 146 143 141 141 142 141
171 187 197 172 161 184 211 227 192 152 164 244 219 174 201 210 209 212 190 190 245 350 311 308 83 121 278 287 347 22 127 149 167 174 178 181 185 190 191 196 197 178 151 151 174 178 177 168 158 155 152 155 160 162 168 171 171 172 172 175 178 180 181 181 179 181 185 184 177 173 169 166 167 164 159 160 157 156 156 152 149 150 149 147 147 149
230 206 185 152 165 205 230 236 173 156 199 236 191 171 213 196 181 186 140 139 26 49 261 272 233 122 268 286 333 17 154 173 181 185 188 188 193 200 202 204 195 160 141 158 182 189 185 164 154 157 155 154 160 165 168 168 167 169 170 173 177 179 181 179 177 180 183 182 176 173 172 170 169 168 164 164 163 164 165 162 158 157 155 154 155 160
269 227 165 153 193 211 233 241 177 178 204 196 135 183 236 343 43 58 85 99 85 286 256 251 217 136 282 280 229 186 203 190 177 179 193 200 209 212 210 210 195 171 167 174 183 190 182 156 151 159 158 155 160 164 166 165 164 167 169 172 174 178 181 179 179 182 183 181 176 173 172 171 170 168 164 162 162 166 168 165 162 160 158 157 158 162
313 288 237 219 216 206 222 247 206 192 202 148 108 165 213 303 11 38 2 51 112 250 265 253 214 138 113 260 231 237 259 207 185 181 185 193 202 203 191 179 166 169 192 186 187 191 179 150 149 158 157 157 162 164 164 163 164 166 169 171 171 174 178 179 182 185 184 183 181 177 175 173 171 168 166 162 160 162 162 160 160 160 159 156 156 159
305 250 261 278 236 199 189 246 301 160 164 143 115 98 111 294 349 9 303 64 181 240 265 277 223 141 183 238 241 276 274 221 206 205 190 187 185 169 147 145 161 188 203 196 190 188 180 156 148 157 159 161 166 167 163 163 165 167 171 173 171 171 174 178 183 185 184 186 187 184 180 177 173 171 169 163 160 159 158 158 160 161 160 157 155 156
291 291 294 295 278 209 168 183 229 178 156 156 157 135 133 138 71 296 270 224 242 233 259 297 287 182 267 266 280 293 275 214 201 228 193 181 175 165 164 170 181 193 195 184 175 182 187 176 155 162 167 167 170 171 167 166 168 170 173 175 173 171 173 178 180 182 182 184 188 188 185 181 176 175 174 168 164 161 159 160 161 161 161 160 160 158
219 299 268 207 259 233 176 185 183 164 158 175 167 136 142 152 152 226 226 185 231 231 298 322 337 157 223 284 303 302 295 162 135 120 148 167 180 169 174 182 188 195 189 167 159 177 192 188 172 172 174 174 171 169 168 170 172 173 174 176 176 173 174 177 178 179 180 181 185 187 186 184 181 180 180 176 172 169 166 164 164 164 163 163 164 163
173 249 255 231 250 231 208 209 160 125 137 214 146 107 142 182 157 187 195 172 186 165 358 341 290 207 210 278 329 0 28 40 59 68 95 101 64 72 92 171 177 255 186 130 135 168 190 197 193 185 177 175 172 169 173 176 176 174 174 176 179 177 175 176 177 178 179 179 182 184 185 185 183 183 183 180 177 174 171 169 169 171 169 165 164 163
142 255 274 313 307 248 227 223 168 156 189 209 126 153 207 171 134 125 193 64 69 124 332 340 271 308 328 344 357 31 37 26 28 29 42 50 52 61 46 36 34 13 18 37 61 147 179 198 208 202 178 173 173 171 176 181 180 177 176 178 179 177 174 173 175 176 177 177 180 183 185 185 185 186 186 184 179 175 173 173 175 177 175 170 166 164
163 263 282 311 296 274 241 199 213 189 144 125 188 202 173 76 93 109 136 13 38 143 269 335 208 301 15 355 344 23 32 20 18 20 26 21 20 31 37 46 50 38 40 35 32 83 148 188 215 221 185 173 172 174 179 183 184 181 180 180 179 175 171 170 171 173 175 179 181 184 185 186 188 189 189 186 182 177 175 174 176 178 177 173 169 168
155 267 290 273 250 286 328 121 305 330 65 131 175 175 107 103 183 102 136 129 94 158 293 343 275 262 166 240 331 360 7 12 22 33 42 35 27 33 39 48 51 46 51 51 40 39 63 135 170 169 166 162 160 170 177 180 184 184 182 182 178 174 171 169 171 173 176 181 184 186 188 188 189 190 189 187 182 180 178 176 177 180 179 175 174 175
104 153 283 280 244 304 357 60 194 299 339 82 96 52 56 130 162 172 158 152 148 158 174 40 321 275 221 274 321 320 309 7 57 57 61 60 63 79 84 75 70 71 70 70 73 58 44 49 58 85 123 133 133 153 164 169 178 181 183 181 174 170 170 170 174 176 178 180 183 186 187 188 188 189 189 186 182 182 180 180 183 184 182 178 177 181
55 110 253 292 326 353 338 283 203 207 176 108 116 216 346 74 128 157 149 117 128 145 163 147 224 263 249 307 317 303 273 191 111 91 90 83 82 96 111 101 85 100 101 92 93 88 80 75 66 65 81 101 107 120 147 164 179 184 181 174 167 166 170 173 176 177 178 179 181 181 181 183 185 186 187 185 183 184 184 184 186 184 183 182 184 189
70 131 200 292 342 359 267 272 303 228 173 143 155 183 157 129 127 131 263 287 108 125 162 151 181 265 299 352 326 327 317 139 104 96 88 65 60 79 83 43 27 95 109 106 103 101 103 108 106 102 108 122 126 119 129 153 170 170 155 151 162 171 174 175 176 177 178 179 180 180 179 181 183 184 185 183 183 187 188 186 184 181 182 185 188 193
132 107 100 281 275 259 275 301 355 319 134 115 111 126 126 116 114 132 194 235 102 101 139 110 112 267 311 17 40 63 68 69 77 87 84 67 44 44 53 43 31 89 100 91 91 92 94 108 124 131 136 147 156 158 159 152 138 139 150 162 172 174 172 175 178 180 181 180 179 179 178 179 181 182 183 183 185 190 189 186 184 181 181 185 186 188
80 71 66 291 299 307 305 320 337 338 56 80 52 52 103 92 112 146 177 178 131 148 138 82 65 261 308 34 59 84 82 71 63 65 80 83 60 48 49 44 45 70 76 67 62 60 65 86 120 131 130 140 156 162 164 154 137 151 172 178 174 171 173 178 181 182 181 177 172 172 172 174 178 180 183 185 186 188 189 189 186 181 179 184 186 182
170 59 104 102 358 349 336 334 334 340 19 56 355 354 105 87 75 119 144 79 109 184 148 119 177 244 136 71 66 80 81 75 66 55 62 76 76 72 70 60 53 53 58 58 55 46 38 33 43 87 102 112 126 134 138 143 156 170 176 169 164 168 173 176 179 178 173 168 165 167 169 171 172 173 178 181 181 185 189 188 183 180 183 189 187 183
132 137 138 150 162 179 219 254 264 300 333 341 337 348 61 88 86 152 124 87 128 202 95 115 180 189 132 108 85 80 83 84 82 74 69 67 65 63 60 57 50 46 47 45 43 45 43 31 21 34 56 78 97 116 128 141 163 181 183 173 166 162 163 170 171 159 155 160 161 161 164 166 166 166 168 171 173 178 183 185 185 187 191 194 191 190
108 88 75 111 142 171 193 232 245 222 53 349 336 341 359 70 100 103 85 103 173 139 50 291 179 139 138 131 107 96 91 90 85 76 73 62 56 60 60 58 55 51 48 43 40 40 39 33 22 24 36 53 73 99 125 142 159 176 186 193 189 166 161 166 155 142 151 162 159 155 159 163 166 162 157 158 166 175 181 189 197 196 194 196 196 197
101 68 43 68 60 74 184 285 306 83 105 48 8 350 341 347 55 84 83 138 150 115 52 253 143 125 137 128 107 94 80 75 61 54 59 55 55 65 66 62 58 52 47 43 40 36 33 31 22 20 28 38 54 73 95 118 143 157 167 183 189 177 173 165 144 145 157 162 159 159 162 166 172 172 169 172 183 191 193 196 199 197 195 197 199 201
104 81 89 98 50 23 20 9 20 63 84 52 36 21 357 347 21 90 118 172 139 129 170 158 123 109 105 87 76 68 67 70 62 54 56 58 59 63 65 62 53 45 45 43 38 33 33 33 28 25 26 28 37 51 69 87 109 125 136 157 170 174 176 168 156 159 161 157 158 161 161 165 172 176 180 186 191 195 197 197 198 197 195 196 199 202
97 78 167 128 69 28 17 22 39 45 54 51 35 24 17 6 22 79 112 127 106 103 130 125 107 80 55 63 73 74 73 78 73 60 53 54 56 61 67 65 55 46 47 45 38 35 35 34 32 30 27 26 28 35 50 64 80 93 97 106 125 147 164 166 166 171 175 171 166 164 165 169 173 177 181 187 191 193 194 195 196 197 198 200 201 203
78 107 265 87 71 23 2 23 38 22 25 55 34 14 15 16 22 48 76 95 90 90 100 102 98 79 50 70 86 84 81 79 71 60 54 50 52 68 72 65 58 54 49 44 39 34 35 36 33 30 29 28 30 36 43 50 59 69 76 81 86 100 133 153 160 170 181 186 177 172 175 176 178 181 183 187 191 193 193 194 197 201 207 209 206 207
78 116 21 71 85 4 341 7 15 2 10 45 26 4 358 2 16 27 26 39 103 127 123 111 115 132 111 100 89 80 82 79 68 56 55 43 28 55 72 69 62 58 47 41 38 34 35 34 30 32 34 34 35 38 42 51 57 60 66 74 79 84 101 123 139 157 173 180 176 179 184 184 182 181 181 185 192 195 196 199 203 207 212 213 212 211
99 122 128 94 103 55 340 356 358 9 32 28 6 348 331 319 330 7 12 5 32 128 134 135 142 134 125 116 96 80 78 77 70 66 68 54 21 32 60 67 63 58 48 43 40 37 36 31 32 39 41 40 42 42 45 55 60 61 65 72 77 83 87 91 101 120 140 154 160 170 185 192 190 184 181 185 191 195 200 205 209 211 212 213 214 215
77 108 127 105 108 143 248 12 22 40 108 214 299 316 314 334 43 56 41 21 33 82 98 97 104 111 118 116 106 100 92 79 71 66 66 65 53 57 65 61 53 53 53 50 47 44 38 33 38 44 45 45 47 49 52 57 60 63 66 69 72 76 78 78 78 80 84 93 110 127 158 185 194 194 192 190 184 187 195 201 206 211 213 215 217 217
104 103 112 87 98 134 127 59 58 143 208 218 297 313 330 52 84 77 60 45 61 93 98 92 89 94 102 105 105 107 104 91 75 56 37 33 40 73 80 68 53 52 52 50 53 52 47 44 44 46 47 47 47 50 53 54 55 58 60 62 64 66 70 71 68 64 64 65 68 75 91 116 141 162 174 174 182 198 203 187 189 207 213 216 218 217
133 123 112 83 85 120 99 65 99 199 298 338 339 331 345 33 58 63 58 44 40 79 104 105 102 101 103 104 102 104 107 98 81 58 40 35 27 55 79 77 68 62 55 55 57 56 55 55 54 53 52 52 52 51 52 53 54 55 54 54 56 58 63 67 64 60 59 58 57 59 66 73 76 78 77 83 124 198 216 188 192 213 218 219 220 216
125 127 116 77 72 124 113 73 61 163 286 328 340 341 47 59 347 25 78 54 31 47 106 115 119 121 119 114 113 121 121 96 74 46 37 51 52 58 71 78 80 78 73 70 67 64 63 64 64 62 60 57 54 52 53 55 56 55 52 50 48 49 55 60 59 58 58 57 56 57 60 64 68 69 70 70 70 69 76 152 193 215 220 224 229 220
82 117 137 119 82 101 108 102 122 198 200 188 276 292 246 208 236 174 116 55 50 98 124 124 126 129 131 130 132 148 134 83 72 41 14 39 54 65 71 75 77 79 78 76 74 71 67 67 69 68 65 62 56 53 55 57 56 54 53 50 47 45 48 51 52 54 56 56 55 54 55 59 61 63 64 63 62 61 61 65 93 227 232 234 239 235
47 54 97 98 82 96 116 120 150 183 202 211 267 293 306 269 226 115 85 347 181 144 141 134 131 133 138 140 135 121 91 90 100 141 40 47 48 58 68 68 67 69 70 72 76 75 68 66 69 69 66 65 61 55 54 56 57 55 52 50 49 45 42 44 47 50 52 52 51 50 50 52 54 55 56 55 54 56 56 57 60 60 295 259 260 259
34 23 44 77 90 101 106 95 113 188 247 310 303 307 310 279 147 90 76 251 189 146 144 140 136 136 138 140 122 62 88 132 151 170 168 134 49 53 64 64 64 69 71 73 77 78 72 65 62 60 60 64 65 60 55 55 58 56 52 51 51 47 42 42 46 49 51 50 48 47 45 45 47 47 47 46 46 46 47 47 49 52 51 36 342 289
25 22 46 93 93 75 92 101 34 271 274 320 321 310 306 291 120 109 209 228 157 127 126 130 135 137 139 149 142 79 75 118 130 141 141 109 70 68 74 76 78 80 84 85 82 79 75 70 65 60 57 57 60 60 60 60 60 57 53 51 50 46 43 44 45 47 48 47 46 45 42 41 41 41 40 38 37 36 37 35 33 34 38 39 36 28
22 25 25 58 68 57 94 107 64 267 293 346 327 310 309 304 169 197 232 166 120 119 120 123 133 135 123 119 118 106 97 99 106 113 110 97 92 86 80 80 81 81 84 87 84 81 79 75 71 66 59 54 56 57 59 62 62 58 54 52 51 49 48 48 45 44 45 45 44 42 39 37 34 34 33 31 28 28 28 26 23 21 21 21 21 23
34 64 44 35 44 55 61 63 92 186 315 343 336 324 348 33 193 175 94 89 105 113 115 115 119 126 121 110 100 103 102 97 97 102 100 98 99 92 86 84 81 79 80 82 81 80 79 74 69 68 65 64 64 61 58 61 62 57 53 52 50 50 50 49 48 46 46 46 45 42 39 36 31 28 25 22 21 20 17 15 14 14 15 14 12 9
13 72 141 200 339 73 80 67 110 259 303 326 350 95 48 358 281 128 101 92 96 103 111 107 87 94 117 115 109 105 103 102 105 107 104 101 96 89 87 85 81 79 80 81 79 78 78 77 74 74 72 70 69 66 62 63 64 60 55 52 48 46 45 44 45 45 44 44 42 39 37 35 31 29 25 21 18 14 11 10 9 8 9 8 8 8
356 58 114 91 45 84 95 80 82 321 323 359 58 82 61 34 33 82 93 90 87 92 105 107 97 88 100 107 107 103 103 106 109 107 105 101 94 92 91 85 79 75 72 75 80 83 85 85 82 78 75 71 68 66 63 62 64 62 58 52 46 43 42 40 39 42 44 43 40 36 32 28 27 26 26 25 23 20 16 12 10 10 10 4 2 5
255 73 80 82 94 84 61 41 52 61 43 51 63 69 70 61 48 72 85 83 79 82 86 98 103 100 96 100 101 99 103 110 105 97 99 96 87 88 89 82 75 72 74 80 88 92 92 90 86 81 77 71 67 65 61 58 59 59 54 46 39 35 32 30 31 36 39 39 38 35 32 29 26 23 20 20 21 21 18 15 13 13 13 10 7 5
326 45 71 89 129 93 53 22 28 49 48 55 68 74 74 71 64 70 79 81 79 79 78 82 88 88 87 93 101 107 113 117 110 98 92 95 91 86 86 84 78 79 85 92 96 97 95 91 88 86 84 81 75 71 66 60 58 55 48 39 32 24 18 20 24 27 27 27 27 26 25 25 24 19 15 14 13 12 11 10 10 9 8 8 6 3
11 62 75 78 68 76 88 64 45 54 46 40 61 75 75 76 74 72 78 86 83 75 71 74 78 80 79 85 100 110 110 108 111 109 100 93 89 85 87 89 88 88 92 95 96 94 92 91 90 88 89 89 85 78 74 70 64 58 48 42 36 27 24 30 33 33 31 26 22 19 18 17 15 11 8 5 2 1 1 0 1 2 5 6 3 358
21 62 70 94 87 84 98 112 94 73 49 35 56 75 77 84 87 82 82 87 86 83 78 72 72 80 92 98 104 105 101 103 112 112 105 91 89 92 94 95 93 91 91 90 88 86 84 85 88 89 90 92 86 76 73 70 65 57 50 47 42 34 38 48 50 47 43 37 30 27 25 23 21 17 11 4 356 351 349 347 347 347 347 351 354 351
58 78 86 103 108 131 183 164 138 113 91 72 84 89 92 104 106 102 99 95 94 99 99 87 78 80 89 104 112 109 105 115 114 105 99 99 108 113 111 107 103 100 96 90 82 76 73 74 77 82 87 89 81 70 65 62 55 47 40 37 34 32 39 51 56 54 52 46 42 42 41 37 33 27 20 13 4 355 346 337 334 333 330 330 332 332
132 155 158 135 140 195 202 181 158 123 117 124 75 81 97 111 108 107 108 105 103 110 113 107 101 88 71 86 112 119 122 129 118 106 96 103 120 124 120 116 111 106 100 92 81 71 66 65 69 79 84 82 72 63 57 50 44 38 32 30 34 38 44 54 60 58 52 43 40 40 36 28 23 17 13 12 11 8 0 349 340 335 331 327 322 319